Location: North Mitre
(40.7833°S, 175.4667°E)
Time: 18:11:40
(UTC+00:00)

ARIANE 6 FM1 Upper Stage - Pass Details

Date: 04 August 2024
Orbit: 566 x 594 km, 62.0° (Epoch: 17 September)

Event Time Altitude Azimuth Distance (km) Brightness Sun altitude
Exits shadow 17:38:10 16° 195° (SSW) 1,532 4.7 -19.6°
Maximum altitude 17:41:06 37° 133° (SE) 911 4.0 -19.0°
Drops below altitude 10° 17:45:03 10° 65° (ENE) 1,880 6.4 -18.3°
Sets 17:47:24 0° 56° (ENE) 2,774 7.4 -17.8°
